M I D A S
Marine Information and Data Acquisition System
Tripno 200 of the Zeeleeuw from 2002-01-18 05:26:21 to 2002-01-18 14:59:22
Back to CruiseResearch ActivitiesStationsMapUnderway DataData graphs

EquipmentUnitsComments
TimeDGPSUTC
LatitudeDGPSDM.mWGS84
LongitudeDGPSDM.mWGS84
SpeedMeteo Stationm/sRelative wind speed
DirectionMeteo StationdegRelative wind direction
TemperatureMeteo Stationdeg CelciusAir temperature
PressureMeteo StationPaAtmospheric pressure
HumidityMeteo Station%Relative humidity
Missing or incorrect values are displayed as -999
Metereological data collected by the RV Zeeleeuw from 2002-01-18 05:26:21 to 2002-01-18 14:59:22
                                                                                    Next 1000 lines
Time Latitude Longitude Speed Direction Temperature Pressure Humidity
2002-01-18 05:26:31 51°13.687 2°55.905 3.1 337 5.8 101920 90
2002-01-18 05:26:36 51°13.687 2°55.905 2.4 332 5.8 101920 90
2002-01-18 05:26:41 51°13.687 2°55.905 2.5 334 5.8 101920 90
2002-01-18 05:26:46 51°13.687 2°55.905 2.7 2 5.8 101920 90
2002-01-18 05:26:51 51°13.687 2°55.905 3.5 349 5.8 101920 90
2002-01-18 05:26:56 51°13.686 2°55.905 3.9 332 5.8 101920 90
2002-01-18 05:27:01 51°13.686 2°55.905 3.9 341 5.8 101920 90
2002-01-18 05:27:06 51°13.686 2°55.905 3.7 340 5.8 101920 90
2002-01-18 05:27:11 51°13.686 2°55.905 4 342 5.8 101920 90
2002-01-18 05:27:16 51°13.686 2°55.905 3.7 339 5.7 101920 90
2002-01-18 05:27:22 51°13.686 2°55.904 3.4 333 5.7 101920 90
2002-01-18 05:27:26 51°13.686 2°55.904 2.9 335 5.8 101920 90
2002-01-18 05:27:31 51°13.686 2°55.904 3.1 329 5.8 101920 90
2002-01-18 05:27:36 51°13.685 2°55.904 3.4 326 5.8 101920 91
2002-01-18 05:27:41 51°13.684 2°55.904 3.2 330 5.8 101920 91
2002-01-18 05:27:46 51°13.683 2°55.904 3 333 5.8 101920 91
2002-01-18 05:27:52 51°13.684 2°55.904 3 356 5.8 101920 91
2002-01-18 05:27:56 51°13.684 2°55.904 2.3 346 5.8 101920 91
2002-01-18 05:28:01 51°13.684 2°55.904 2.7 326 5.8 101920 91
2002-01-18 05:28:06 51°13.684 2°55.904 2.7 342 5.8 101920 91
2002-01-18 05:28:09 51°13.684 2°55.904 3 334 5.8 101920 91
2002-01-18 05:28:17 51°13.683 2°55.904 2.7 336 5.8 101920 91
2002-01-18 05:28:21 51°13.683 2°55.904 2.4 346 5.8 101920 91
2002-01-18 05:28:26 51°13.683 2°55.903 2.5 333 5.8 101920 91
2002-01-18 05:28:31 51°13.683 2°55.903 2.6 327 5.8 101920 91
2002-01-18 05:28:36 51°13.683 2°55.903 2.6 320 5.8 101920 91
2002-01-18 05:28:41 51°13.683 2°55.903 2.5 308 5.8 101920 91
2002-01-18 05:28:45 51°13.683 2°55.903 3.1 330 5.8 101920 91
2002-01-18 05:28:52 51°13.683 2°55.903 3.7 308 5.8 101920 91
2002-01-18 05:28:57 51°13.683 2°55.903 2.7 316 5.8 101920 91
2002-01-18 05:29:02 51°13.683 2°55.902 2.6 298 5.8 101920 91
2002-01-18 05:29:07 51°13.684 2°55.9 2.5 295 5.8 101920 91
2002-01-18 05:29:12 51°13.684 2°55.898 3.6 322 5.8 101920 91
2002-01-18 05:29:17 51°13.685 2°55.895 3.8 321 5.8 101920 91
2002-01-18 05:29:22 51°13.685 2°55.891 4.3 316 5.8 101920 91
2002-01-18 05:29:27 51°13.686 2°55.886 3 309 5.8 101920 91
2002-01-18 05:29:32 51°13.686 2°55.88 4.1 318 5.8 101920 91
2002-01-18 05:29:38 51°13.687 2°55.873 4.1 308 5.9 101920 91
2002-01-18 05:29:42 51°13.687 2°55.868 4.3 321 5.9 101920 91
2002-01-18 05:29:47 51°13.687 2°55.86 5.3 323 5.9 101920 91
2002-01-18 05:29:52 51°13.687 2°55.853 4.8 314 5.9 101920 91
2002-01-18 05:29:57 51°13.687 2°55.845 4.9 312 6 101920 91
2002-01-18 05:30:02 51°13.687 2°55.837 4.4 320 6 101920 91
2002-01-18 05:30:07 51°13.687 2°55.83 4.4 316 6 101920 91
2002-01-18 05:30:12 51°13.687 2°55.823 3.8 312 6 101920 91
2002-01-18 05:30:17 51°13.687 2°55.815 4.1 298 6 101920 91
2002-01-18 05:30:22 51°13.687 2°55.809 5.3 303 6 101920 91
2002-01-18 05:30:27 51°13.687 2°55.802 4.8 299 6.1 101920 91
2002-01-18 05:30:32 51°13.686 2°55.794 4 307 6.1 101920 91
2002-01-18 05:30:37 51°13.686 2°55.788 4.2 320 6.1 101920 91
2002-01-18 05:30:42 51°13.686 2°55.782 3.9 312 6.1 101920 91
2002-01-18 05:30:48 51°13.685 2°55.774 4.2 320 6.1 101920 91
2002-01-18 05:30:52 51°13.685 2°55.769 2.6 301 6.1 101920 91
2002-01-18 05:30:57 51°13.684 2°55.764 2.3 287 6.1 101920 91
2002-01-18 05:31:02 51°13.684 2°55.758 2.9 306 6.1 101920 91
2002-01-18 05:31:06 51°13.684 2°55.754 2.4 314 6.1 101920 91
2002-01-18 05:31:11 51°13.683 2°55.749 1.9 313 6.1 101920 91
2002-01-18 05:31:16 51°13.683 2°55.743 3.5 302 6.1 101920 91
2002-01-18 05:31:23 51°13.682 2°55.737 2.6 301 6.1 101920 91
2002-01-18 05:31:26 51°13.682 2°55.735 2.5 297 6.1 101920 90
2002-01-18 05:31:31 51°13.682 2°55.733 2.1 272 6.1 101920 90
2002-01-18 05:31:36 51°13.683 2°55.733 2.5 264 6.1 101920 90
2002-01-18 05:31:41 51°13.684 2°55.734 2.7 259 6.1 101920 90
2002-01-18 05:31:46 51°13.686 2°55.736 2.3 259 6.1 101910 90
2002-01-18 05:31:51 51°13.688 2°55.739 1.3 248 6.1 101910 90
2002-01-18 05:31:57 51°13.692 2°55.742 1.8 181 6.1 101910 90
2002-01-18 05:32:01 51°13.696 2°55.743 2.2 176 6.1 101910 90
2002-01-18 05:32:06 51°13.701 2°55.745 2.7 167 6.1 101910 90
2002-01-18 05:32:11 51°13.706 2°55.745 2.8 188 6.1 101910 90
2002-01-18 05:32:16 51°13.713 2°55.743 4.6 172 6.1 101910 90
2002-01-18 05:32:21 51°13.72 2°55.741 4.7 183 6.1 101910 90
2002-01-18 05:32:26 51°13.728 2°55.736 4.1 143 6.1 101910 90
2002-01-18 05:32:32 51°13.737 2°55.729 4.6 161 6.1 101910 90
2002-01-18 05:32:37 51°13.745 2°55.721 4.8 153 6.1 101910 90
2002-01-18 05:32:41 51°13.752 2°55.715 5.5 153 6.1 101910 90
2002-01-18 05:32:46 51°13.761 2°55.705 5 171 6.1 101910 90
2002-01-18 05:32:50 51°13.769 2°55.698 6.1 160 6.1 101910 90
2002-01-18 05:32:56 51°13.78 2°55.686 5.2 144 6 101910 89
2002-01-18 05:33:02 51°13.793 2°55.673 6.2 159 6 101910 89
2002-01-18 05:33:07 51°13.803 2°55.663 5.5 168 6 101900 89
2002-01-18 05:33:11 51°13.812 2°55.655 4.4 160 6 101900 89
2002-01-18 05:33:17 51°13.825 2°55.644 4.6 142 6 101900 89
2002-01-18 05:33:22 51°13.837 2°55.635 5.7 134 6 101900 89
2002-01-18 05:33:27 51°13.848 2°55.625 6.2 141 6 101900 89
2002-01-18 05:33:33 51°13.863 2°55.614 6.2 148 6 101900 89
2002-01-18 05:33:37 51°13.872 2°55.606 6.8 164 6 101900 89
2002-01-18 05:33:41 51°13.882 2°55.599 5.8 168 6 101900 89
2002-01-18 05:33:47 51°13.897 2°55.588 6.8 149 6 101900 89
2002-01-18 05:33:51 51°13.907 2°55.581 5.6 152 6 101900 89
2002-01-18 05:33:56 51°13.919 2°55.572 6.2 158 5.9 101900 89
2002-01-18 05:34:01 51°13.932 2°55.562 7.6 160 5.9 101900 89
2002-01-18 05:34:06 51°13.944 2°55.553 8.4 164 5.9 101900 90
2002-01-18 05:34:12 51°13.959 2°55.542 7.6 160 5.9 101900 90
2002-01-18 05:34:16 51°13.969 2°55.535 6.4 163 5.9 101900 90
2002-01-18 05:34:21 51°13.982 2°55.526 6.6 150 5.9 101900 90
2002-01-18 05:34:26 51°13.994 2°55.518 5.7 160 5.9 101900 90
2002-01-18 05:34:32 51°14.007 2°55.508 5.4 155 5.9 101900 90
2002-01-18 05:34:37 51°14.018 2°55.5 5.3 152 5.9 101900 90
2002-01-18 05:34:42 51°14.028 2°55.492 5.5 154 5.9 101900 90
2002-01-18 05:34:47 51°14.038 2°55.485 4.8 163 5.9 101900 90
2002-01-18 05:34:50 51°14.043 2°55.481 5.3 163 5.9 101900 90
2002-01-18 05:34:56 51°14.055 2°55.473 7.1 168 5.9 101910 90
2002-01-18 05:35:01 51°14.064 2°55.466 5.1 160 5.9 101910 90
2002-01-18 05:35:07 51°14.074 2°55.459 3.8 185 5.9 101910 90
2002-01-18 05:35:11 51°14.08 2°55.453 4.3 157 5.9 101910 90
2002-01-18 05:35:17 51°14.09 2°55.446 6.8 156 5.9 101900 90
2002-01-18 05:35:22 51°14.099 2°55.439 7.3 165 5.9 101900 90
2002-01-18 05:35:26 51°14.106 2°55.434 6.3 166 5.9 101900 90
2002-01-18 05:35:32 51°14.116 2°55.425 6.6 165 5.9 101900 90
2002-01-18 05:35:36 51°14.123 2°55.419 7.2 185 5.9 101900 90
2002-01-18 05:35:41 51°14.132 2°55.412 6.3 178 5.9 101900 90
2002-01-18 05:35:46 51°14.142 2°55.405 6.7 177 5.9 101900 90
2002-01-18 05:35:50 51°14.149 2°55.398 7.7 182 5.9 101900 90
2002-01-18 05:35:56 51°14.16 2°55.389 7.3 168 5.9 101900 90
2002-01-18 05:36:01 51°14.169 2°55.381 6.8 184 5.9 101900 90
2002-01-18 05:36:06 51°14.178 2°55.373 6.4 175 5.9 101910 90
2002-01-18 05:36:11 51°14.187 2°55.364 6.6 172 5.9 101910 90
2002-01-18 05:36:16 51°14.196 2°55.355 7.3 163 5.9 101900 90
2002-01-18 05:36:21 51°14.205 2°55.345 6 165 5.9 101900 90
2002-01-18 05:36:27 51°14.215 2°55.333 6.8 172 5.9 101900 90
2002-01-18 05:36:32 51°14.224 2°55.322 6.9 173 5.9 101900 90
2002-01-18 05:36:36 51°14.23 2°55.313 8.6 173 5.9 101900 90
2002-01-18 05:36:41 51°14.238 2°55.301 7.5 165 5.9 101900 90
2002-01-18 05:36:47 51°14.248 2°55.286 7.5 168 5.9 101900 90
2002-01-18 05:36:52 51°14.255 2°55.273 8.6 169 5.9 101900 90
2002-01-18 05:36:56 51°14.261 2°55.262 8.3 169 5.8 101900 90
2002-01-18 05:37:01 51°14.268 2°55.248 7.8 170 5.8 101900 90
2002-01-18 05:37:07 51°14.276 2°55.232 8.2 170 5.8 101900 90
2002-01-18 05:37:13 51°14.285 2°55.214 8.3 166 5.8 101900 90
2002-01-18 05:37:16 51°14.289 2°55.206 7.8 168 5.8 101900 90
2002-01-18 05:37:21 51°14.296 2°55.191 8 168 5.8 101900 90
2002-01-18 05:37:27 51°14.304 2°55.173 7.9 171 5.8 101890 90
2002-01-18 05:37:31 51°14.309 2°55.161 7.7 174 5.8 101890 90
2002-01-18 05:37:37 51°14.318 2°55.144 7.3 167 5.7 101900 90
2002-01-18 05:37:41 51°14.324 2°55.133 7.7 162 5.7 101900 90
2002-01-18 05:37:46 51°14.331 2°55.118 7.3 169 5.7 101900 90
2002-01-18 05:37:51 51°14.338 2°55.104 7.9 175 5.7 101900 90
2002-01-18 05:37:56 51°14.346 2°55.089 8.3 174 5.7 101900 90
2002-01-18 05:38:01 51°14.353 2°55.074 8.4 173 5.7 101900 90
2002-01-18 05:38:06 51°14.361 2°55.059 8.3 173 5.7 101900 90
2002-01-18 05:38:11 51°14.368 2°55.043 8.6 168 5.7 101900 90
2002-01-18 05:38:16 51°14.377 2°55.027 8.5 169 5.7 101900 90
2002-01-18 05:38:21 51°14.385 2°55.01 8.3 171 5.7 101900 90
2002-01-18 05:38:26 51°14.393 2°54.993 8.5 168 5.6 101890 90
2002-01-18 05:38:31 51°14.403 2°54.977 9.4 167 5.6 101890 90
2002-01-18 05:38:36 51°14.412 2°54.96 10.2 165 5.6 101900 90
2002-01-18 05:38:41 51°14.422 2°54.942 9.8 167 5.6 101900 90
2002-01-18 05:38:46 51°14.433 2°54.926 9.5 168 5.6 101890 90
2002-01-18 05:38:51 51°14.444 2°54.909 8.7 175 5.6 101890 90
2002-01-18 05:38:56 51°14.456 2°54.892 9.8 172 5.6 101890 90
2002-01-18 05:39:01 51°14.467 2°54.874 9.8 169 5.6 101890 90
2002-01-18 05:39:05 51°14.477 2°54.861 9.7 168 5.6 101900 90
2002-01-18 05:39:11 51°14.491 2°54.84 10.1 162 5.6 101900 90
2002-01-18 05:39:16 51°14.504 2°54.823 9.1 171 5.6 101890 91
2002-01-18 05:39:22 51°14.52 2°54.803 9 167 5.6 101890 91
2002-01-18 05:39:26 51°14.53 2°54.79 9.1 168 5.6 101890 91
2002-01-18 05:39:32 51°14.546 2°54.771 9.1 170 5.6 101890 91
2002-01-18 05:39:36 51°14.557 2°54.758 8.7 165 5.6 101890 91
2002-01-18 05:39:41 51°14.57 2°54.742 8.4 164 5.6 101890 91
2002-01-18 05:39:46 51°14.583 2°54.726 9.5 164 5.5 101890 91
2002-01-18 05:39:52 51°14.599 2°54.706 9.4 160 5.5 101890 91
2002-01-18 05:39:56 51°14.61 2°54.693 9.4 164 5.5 101880 91
2002-01-18 05:40:01 51°14.623 2°54.677 9.3 164 5.5 101880 91
2002-01-18 05:40:07 51°14.64 2°54.659 9.3 170 5.5 101890 91
2002-01-18 05:40:11 51°14.651 2°54.647 9 169 5.5 101890 91
2002-01-18 05:40:16 51°14.665 2°54.632 8.4 169 5.5 101890 91
2002-01-18 05:40:21 51°14.679 2°54.616 8.5 169 5.5 101890 91
2002-01-18 05:40:26 51°14.692 2°54.601 8.4 169 5.5 101890 91
2002-01-18 05:40:31 51°14.706 2°54.585 8.2 167 5.5 101890 91
2002-01-18 05:40:36 51°14.72 2°54.57 8.9 169 5.5 101890 91
2002-01-18 05:40:41 51°14.734 2°54.555 8.9 173 5.5 101890 91
2002-01-18 05:40:45 51°14.745 2°54.543 8.7 170 5.5 101890 91
2002-01-18 05:40:49 51°14.756 2°54.53 9.5 171 5.5 101890 91
2002-01-18 05:40:56 51°14.775 2°54.509 10 167 5.5 101890 91
2002-01-18 05:41:01 51°14.789 2°54.494 8.5 170 5.5 101890 91
2002-01-18 05:41:06 51°14.803 2°54.48 9 167 5.5 101890 91
2002-01-18 05:41:12 51°14.82 2°54.462 8.6 169 5.5 101890 91
2002-01-18 05:41:16 51°14.831 2°54.45 9.1 160 5.5 101890 91
2002-01-18 05:41:21 51°14.845 2°54.436 8.7 167 5.5 101890 91
2002-01-18 05:41:26 51°14.858 2°54.421 9 163 5.5 101890 91
2002-01-18 05:41:30 51°14.869 2°54.409 8.3 169 5.5 101890 91
2002-01-18 05:41:36 51°14.886 2°54.391 7.9 168 5.5 101890 91
2002-01-18 05:41:41 51°14.9 2°54.377 8.9 169 5.5 101890 91
2002-01-18 05:41:47 51°14.916 2°54.359 9.4 167 5.4 101890 91
2002-01-18 05:41:52 51°14.93 2°54.344 8.8 166 5.4 101890 91
2002-01-18 05:41:56 51°14.941 2°54.333 7.9 167 5.4 101890 91
2002-01-18 05:42:01 51°14.955 2°54.318 8.3 167 5.4 101890 91
2002-01-18 05:42:06 51°14.969 2°54.304 9 172 5.4 101900 91
2002-01-18 05:42:10 51°14.98 2°54.293 8.5 172 5.4 101900 91
2002-01-18 05:42:16 51°14.998 2°54.277 8.6 172 5.4 101890 91
2002-01-18 05:42:22 51°15.015 2°54.261 9.1 178 5.4 101890 91
2002-01-18 05:42:26 51°15.026 2°54.249 8.2 173 5.4 101890 91
2002-01-18 05:42:31 51°15.041 2°54.236 8.9 173 5.4 101890 91
2002-01-18 05:42:36 51°15.056 2°54.222 9.5 174 5.4 101890 91
2002-01-18 05:42:41 51°15.071 2°54.208 8 170 5.4 101890 91
2002-01-18 05:42:45 51°15.083 2°54.197 8.8 172 5.4 101890 91
2002-01-18 05:42:51 51°15.1 2°54.18 9.2 169 5.4 101890 91
2002-01-18 05:42:55 51°15.112 2°54.169 8.4 169 5.4 101890 91
2002-01-18 05:43:01 51°15.13 2°54.151 8.7 173 5.4 101890 91
2002-01-18 05:43:06 51°15.144 2°54.137 8.8 172 5.4 101890 92
2002-01-18 05:43:11 51°15.159 2°54.122 8.6 173 5.4 101890 92
2002-01-18 05:43:16 51°15.174 2°54.107 9.2 170 5.4 101890 92
2002-01-18 05:43:22 51°15.192 2°54.09 8.2 172 5.4 101890 92
2002-01-18 05:43:26 51°15.204 2°54.078 9.1 170 5.4 101890 92
2002-01-18 05:43:31 51°15.219 2°54.063 8.8 174 5.4 101890 92
2002-01-18 05:43:37 51°15.237 2°54.045 8.9 173 5.4 101900 92
2002-01-18 05:43:41 51°15.249 2°54.032 9.1 169 5.4 101900 92
2002-01-18 05:43:46 51°15.265 2°54.017 8.4 171 5.4 101900 92
2002-01-18 05:43:53 51°15.287 2°53.995 8.6 167 5.4 101900 92
2002-01-18 05:43:56 51°15.296 2°53.986 10.1 170 5.4 101890 92
2002-01-18 05:44:01 51°15.312 2°53.97 8.7 163 5.4 101890 92
2002-01-18 05:44:06 51°15.328 2°53.954 10.2 172 5.3 101900 92
2002-01-18 05:44:12 51°15.347 2°53.934 10.1 165 5.3 101900 92
2002-01-18 05:44:17 51°15.363 2°53.919 10.5 167 5.3 101900 92
2002-01-18 05:44:21 51°15.375 2°53.905 9.7 163 5.3 101900 92
2002-01-18 05:44:26 51°15.391 2°53.889 9.9 170 5.3 101890 92
2002-01-18 05:44:31 51°15.407 2°53.872 9.7 168 5.3 101890 92
2002-01-18 05:44:36 51°15.423 2°53.856 10.8 172 5.3 101890 92
2002-01-18 05:44:41 51°15.439 2°53.839 9.6 167 5.3 101890 92
2002-01-18 05:44:46 51°15.455 2°53.824 11.1 172 5.3 101890 92
2002-01-18 05:44:51 51°15.471 2°53.806 10.7 165 5.3 101890 92
2002-01-18 05:44:56 51°15.487 2°53.791 9.9 171 5.3 101900 92
2002-01-18 05:45:01 51°15.503 2°53.773 10.2 160 5.3 101900 92
2002-01-18 05:45:06 51°15.519 2°53.758 11.7 172 5.3 101900 92
2002-01-18 05:45:11 51°15.535 2°53.739 9 163 5.3 101900 92
2002-01-18 05:45:17 51°15.555 2°53.721 11.5 169 5.3 101890 92
2002-01-18 05:45:21 51°15.567 2°53.706 9.6 162 5.3 101890 92
2002-01-18 05:45:26 51°15.583 2°53.691 11 170 5.3 101890 92
2002-01-18 05:45:31 51°15.599 2°53.673 9.9 166 5.3 101890 92
2002-01-18 05:45:37 51°15.619 2°53.654 10.2 173 5.3 101890 92
2002-01-18 05:45:41 51°15.631 2°53.639 9.4 167 5.3 101890 92
2002-01-18 05:45:47 51°15.651 2°53.621 10.8 167 5.3 101900 92
2002-01-18 05:45:53 51°15.67 2°53.6 9.7 165 5.3 101900 92
2002-01-18 05:45:57 51°15.684 2°53.588 10.7 168 5.3 101890 92
2002-01-18 05:46:01 51°15.696 2°53.574 8.3 169 5.3 101890 92
2002-01-18 05:46:07 51°15.716 2°53.556 9.4 169 5.4 101890 92
2002-01-18 05:46:11 51°15.729 2°53.541 8.4 167 5.4 101890 92
2002-01-18 05:46:17 51°15.749 2°53.523 9.1 170 5.4 101890 92
2002-01-18 05:46:22 51°15.765 2°53.505 8.9 169 5.4 101890 92
2002-01-18 05:46:26 51°15.778 2°53.492 9.2 169 5.4 101890 92
2002-01-18 05:46:32 51°15.797 2°53.472 8.9 166 5.4 101890 92
2002-01-18 05:46:36 51°15.81 2°53.46 8.1 168 5.3 101900 92
2002-01-18 05:46:41 51°15.827 2°53.444 7.8 167 5.3 101900 92
2002-01-18 05:46:46 51°15.844 2°53.429 7.9 168 5.3 101900 92
2002-01-18 05:46:51 51°15.86 2°53.413 8.7 166 5.3 101900 92
2002-01-18 05:46:56 51°15.877 2°53.398 8.6 165 5.3 101890 92
2002-01-18 05:47:01 51°15.894 2°53.383 8.3 168 5.3 101890 92
2002-01-18 05:47:06 51°15.911 2°53.368 8.5 167 5.3 101890 92
2002-01-18 05:47:10 51°15.924 2°53.356 8.3 166 5.3 101890 92
2002-01-18 05:47:16 51°15.944 2°53.337 7.9 165 5.2 101900 92
2002-01-18 05:47:21 51°15.961 2°53.322 7.8 165 5.2 101900 92
2002-01-18 05:47:26 51°15.978 2°53.307 8.6 164 5.2 101900 92
2002-01-18 05:47:31 51°15.995 2°53.293 8.6 164 5.2 101900 92
2002-01-18 05:47:36 51°16.011 2°53.277 8 160 5.1 101900 92
2002-01-18 05:47:41 51°16.029 2°53.262 9 163 5.1 101900 92
2002-01-18 05:47:46 51°16.045 2°53.247 9 160 5.1 101890 91
2002-01-18 05:47:51 51°16.062 2°53.232 10 165 5.1 101890 91
2002-01-18 05:47:56 51°16.079 2°53.217 9.5 162 5.1 101900 91
2002-01-18 05:48:01 51°16.096 2°53.202 10.3 165 5.1 101900 91
2002-01-18 05:48:07 51°16.116 2°53.184 9.6 162 5 101900 91
2002-01-18 05:48:12 51°16.133 2°53.168 9.5 165 5 101900 91
2002-01-18 05:48:16 51°16.146 2°53.155 9.8 160 5 101900 91
2002-01-18 05:48:21 51°16.163 2°53.141 9.6 167 5 101900 91
2002-01-18 05:48:27 51°16.183 2°53.123 9.7 162 5 101890 92
2002-01-18 05:48:31 51°16.197 2°53.112 9.9 165 5 101890 92
2002-01-18 05:48:36 51°16.214 2°53.096 9.9 160 5 101890 92
2002-01-18 05:48:41 51°16.232 2°53.083 10.8 167 5 101890 92
2002-01-18 05:48:47 51°16.252 2°53.065 9.8 160 5 101890 92
2002-01-18 05:48:51 51°16.266 2°53.055 10.5 164 5 101890 92
2002-01-18 05:48:57 51°16.287 2°53.038 10 160 5 101890 92
2002-01-18 05:49:01 51°16.301 2°53.029 10.7 166 5 101890 92
2002-01-18 05:49:07 51°16.322 2°53.011 9.4 159 5 101890 92
2002-01-18 05:49:11 51°16.336 2°53.002 9.8 166 5 101890 92
2002-01-18 05:49:17 51°16.357 2°52.985 9.1 159 5 101890 92
2002-01-18 05:49:21 51°16.372 2°52.976 9.9 168 5 101890 92
2002-01-18 05:49:27 51°16.392 2°52.959 10.1 161 5 101900 92
2002-01-18 05:49:31 51°16.407 2°52.95 10.1 167 5 101900 92
2002-01-18 05:49:36 51°16.425 2°52.937 10.1 161 5 101890 92
2002-01-18 05:49:41 51°16.443 2°52.927 10.3 167 5 101890 92
2002-01-18 05:49:46 51°16.461 2°52.914 10.1 160 5.1 101890 92
2002-01-18 05:49:51 51°16.479 2°52.904 10.4 168 5.1 101890 92
2002-01-18 05:49:56 51°16.497 2°52.891 10 162 5 101890 92
2002-01-18 05:50:02 51°16.519 2°52.88 10.5 166 5 101890 92
2002-01-18 05:50:07 51°16.537 2°52.867 9.2 161 5 101890 92
2002-01-18 05:50:13 51°16.559 2°52.855 10.2 167 5 101890 92
2002-01-18 05:50:17 51°16.573 2°52.844 10 161 5 101890 92
2002-01-18 05:50:23 51°16.596 2°52.832 11.2 167 5 101890 92
2002-01-18 05:50:27 51°16.609 2°52.822 10 161 5 101890 92
2002-01-18 05:50:32 51°16.628 2°52.812 9.5 169 5 101890 92
2002-01-18 05:50:36 51°16.642 2°52.801 9.2 160 5 101890 92
2002-01-18 05:50:41 51°16.66 2°52.791 9.9 167 5 101890 92
2002-01-18 05:50:45 51°16.674 2°52.781 8.9 164 5 101890 92
2002-01-18 05:50:51 51°16.696 2°52.767 10.1 163 5 101890 92
2002-01-18 05:50:57 51°16.717 2°52.753 10.7 165 5 101890 92
2002-01-18 05:51:02 51°16.735 2°52.742 9.2 165 5 101890 92
2002-01-18 05:51:06 51°16.749 2°52.732 9.2 165 5 101890 92
2002-01-18 05:51:11 51°16.767 2°52.722 9.2 164 5 101890 92
2002-01-18 05:51:17 51°16.789 2°52.707 9.7 166 5 101900 92
2002-01-18 05:51:21 51°16.803 2°52.698 10.3 164 5 101900 92
2002-01-18 05:51:27 51°16.824 2°52.683 10.4 164 5.1 101900 92
2002-01-18 05:51:31 51°16.838 2°52.674 10.2 163 5.1 101900 92
2002-01-18 05:51:36 51°16.856 2°52.662 10.2 168 5 101900 92
2002-01-18 05:51:41 51°16.873 2°52.649 10.5 165 5 101900 92
2002-01-18 05:51:47 51°16.895 2°52.634 10.7 167 5.1 101890 92
2002-01-18 05:51:53 51°16.916 2°52.62 10.3 164 5.1 101890 92
2002-01-18 05:51:57 51°16.93 2°52.61 10 167 5.1 101890 93
2002-01-18 05:52:01 51°16.944 2°52.6 9.4 163 5.1 101890 93
2002-01-18 05:52:07 51°16.966 2°52.586 11.4 167 5.1 101900 93
2002-01-18 05:52:11 51°16.98 2°52.575 9.6 163 5.1 101900 93
2002-01-18 05:52:17 51°17.002 2°52.561 11 168 5.1 101890 93
2002-01-18 05:52:21 51°17.016 2°52.551 10 160 5.1 101890 93
2002-01-18 05:52:27 51°17.037 2°52.538 10 166 5.1 101900 93
2002-01-18 05:52:31 51°17.051 2°52.527 9.7 160 5.1 101900 93
2002-01-18 05:52:36 51°17.069 2°52.517 10.3 167 5.1 101890 93
2002-01-18 05:52:41 51°17.087 2°52.503 8.7 156 5.1 101890 93
2002-01-18 05:52:47 51°17.108 2°52.489 11.3 168 5.1 101890 93
2002-01-18 05:52:51 51°17.122 2°52.478 9.7 158 5.1 101890 93
2002-01-18 05:52:57 51°17.144 2°52.465 10.6 167 5.1 101900 93
2002-01-18 05:53:01 51°17.157 2°52.453 10.1 160 5.1 101900 93
2002-01-18 05:53:05 51°17.172 2°52.445 10.8 168 5.1 101890 93
2002-01-18 05:53:11 51°17.193 2°52.429 9.2 159 5.1 101890 93
2002-01-18 05:53:16 51°17.212 2°52.419 11.2 168 5.2 101890 93
2002-01-18 05:53:21 51°17.229 2°52.406 10 159 5.2 101890 93
2002-01-18 05:53:27 51°17.251 2°52.394 10 166 5.1 101890 92
2002-01-18 05:53:31 51°17.265 2°52.384 10.4 158 5.1 101890 92
2002-01-18 05:53:36 51°17.283 2°52.374 9.9 165 5.2 101890 92
2002-01-18 05:53:41 51°17.301 2°52.361 10.2 159 5.2 101890 92
2002-01-18 05:53:47 51°17.323 2°52.35 11.7 164 5.2 101890 92
2002-01-18 05:53:52 51°17.341 2°52.338 10.5 160 5.2 101890 92
2002-01-18 05:53:57 51°17.359 2°52.329 10.5 168 5.2 101890 92
2002-01-18 05:54:01 51°17.373 2°52.319 10.4 159 5.2 101890 92
2002-01-18 05:54:07 51°17.396 2°52.309 11.2 169 5.2 101890 92
2002-01-18 05:54:10 51°17.406 2°52.301 9.7 160 5.2 101890 92
2002-01-18 05:54:17 51°17.432 2°52.289 10.8 166 5.2 101890 92
2002-01-18 05:54:22 51°17.449 2°52.276 9.5 160 5.2 101890 92
2002-01-18 05:54:27 51°17.468 2°52.268 11.2 168 5.2 101890 92
2002-01-18 05:54:31 51°17.482 2°52.257 9.1 158 5.2 101890 92
2002-01-18 05:54:37 51°17.504 2°52.247 11.1 167 5.2 101890 92
2002-01-18 05:54:42 51°17.522 2°52.235 10.3 159 5.2 101890 92
2002-01-18 05:54:46 51°17.537 2°52.229 10.7 164 5.3 101890 92
2002-01-18 05:54:52 51°17.558 2°52.215 9.2 158 5.3 101890 92
2002-01-18 05:54:56 51°17.573 2°52.208 10.3 163 5.3 101890 92
2002-01-18 05:55:01 51°17.591 2°52.196 9.8 154 5.3 101890 92
2002-01-18 05:55:07 51°17.613 2°52.186 11.2 160 5.3 101890 92
2002-01-18 05:55:11 51°17.627 2°52.175 10.3 160 5.3 101890 92
2002-01-18 05:55:16 51°17.646 2°52.167 12.1 164 5.3 101880 92
2002-01-18 05:55:21 51°17.664 2°52.154 10.8 159 5.3 101880 92
2002-01-18 05:55:26 51°17.682 2°52.145 11.4 165 5.3 101890 92
2002-01-18 05:55:31 51°17.7 2°52.133 10.4 157 5.3 101890 92
2002-01-18 05:55:37 51°17.723 2°52.123 11 164 5.3 101880 92
2002-01-18 05:55:43 51°17.744 2°52.109 12.1 158 5.3 101880 92
2002-01-18 05:55:47 51°17.759 2°52.102 12.2 164 5.3 101880 92
2002-01-18 05:55:52 51°17.777 2°52.09 10.6 156 5.3 101880 92
2002-01-18 05:55:57 51°17.796 2°52.083 12.5 165 5.3 101880 92
2002-01-18 05:56:01 51°17.811 2°52.072 10.3 158 5.3 101880 92
2002-01-18 05:56:05 51°17.826 2°52.067 11.4 166 5.4 101890 92
2002-01-18 05:56:11 51°17.848 2°52.053 10.3 158 5.4 101890 92
2002-01-18 05:56:17 51°17.87 2°52.043 11.7 162 5.4 101880 92
2002-01-18 05:56:22 51°17.888 2°52.031 11.6 158 5.4 101880 92
2002-01-18 05:56:27 51°17.907 2°52.022 11.8 161 5.4 101880 92
2002-01-18 05:56:31 51°17.922 2°52.013 11.7 157 5.4 101880 92
2002-01-18 05:56:36 51°17.94 2°52.004 11.3 163 5.4 101880 91
2002-01-18 05:56:43 51°17.966 2°51.989 9.4 158 5.4 101880 91
2002-01-18 05:56:47 51°17.981 2°51.983 12 166 5.4 101880 91
2002-01-18 05:56:51 51°17.996 2°51.974 10.8 158 5.4 101880 91
2002-01-18 05:56:57 51°18.018 2°51.964 10.9 163 5.4 101880 91
2002-01-18 05:57:01 51°18.033 2°51.954 10.4 159 5.4 101880 91
2002-01-18 05:57:07 51°18.056 2°51.945 11.1 164 5.4 101880 91
2002-01-18 05:57:13 51°18.077 2°51.931 11.3 161 5.4 101880 91
2002-01-18 05:57:18 51°18.096 2°51.923 10.8 163 5.5 101880 91
2002-01-18 05:57:23 51°18.114 2°51.911 11 160 5.5 101880 91
2002-01-18 05:57:28 51°18.134 2°51.904 10.9 163 5.5 101880 91
2002-01-18 05:57:33 51°18.151 2°51.891 11.1 162 5.5 101880 91
2002-01-18 05:57:37 51°18.166 2°51.885 11.4 168 5.5 101880 91
2002-01-18 05:57:42 51°18.184 2°51.873 9.8 160 5.5 101880 91
2002-01-18 05:57:48 51°18.207 2°51.863 11.3 162 5.5 101880 91
2002-01-18 05:57:53 51°18.225 2°51.851 10.6 160 5.5 101880 91
2002-01-18 05:57:57 51°18.24 2°51.845 11.5 163 5.5 101870 91
2002-01-18 05:58:02 51°18.258 2°51.833 11 159 5.5 101870 91
2002-01-18 05:58:05 51°18.269 2°51.827 11.8 160 5.5 101880 91
2002-01-18 05:58:10 51°18.288 2°51.818 11.7 161 5.5 101880 91
2002-01-18 05:58:15 51°18.306 2°51.807 11 162 5.5 101880 91
2002-01-18 05:58:21 51°18.328 2°51.795 11 161 5.5 101880 91
2002-01-18 05:58:27 51°18.35 2°51.783 10.4 160 5.5 101880 90
2002-01-18 05:58:33 51°18.372 2°51.77 10.7 161 5.5 101880 90
2002-01-18 05:58:36 51°18.383 2°51.764 11.2 160 5.6 101880 90
2002-01-18 05:58:41 51°18.401 2°51.754 11.4 165 5.6 101880 90
2002-01-18 05:58:47 51°18.423 2°51.742 10.2 162 5.6 101880 90
2002-01-18 05:58:51 51°18.438 2°51.734 10.8 164 5.6 101880 90
2002-01-18 05:58:57 51°18.46 2°51.722 9.6 162 5.6 101880 90
2002-01-18 05:59:02 51°18.478 2°51.712 11.6 166 5.6 101880 90
2002-01-18 05:59:07 51°18.497 2°51.701 11 161 5.6 101880 90
2002-01-18 05:59:11 51°18.511 2°51.694 11.3 166 5.6 101880 90
2002-01-18 05:59:16 51°18.529 2°51.683 10.3 161 5.6 101880 90
2002-01-18 05:59:21 51°18.548 2°51.675 10.3 168 5.6 101880 90
2002-01-18 05:59:27 51°18.57 2°51.661 9.4 163 5.6 101880 90
2002-01-18 05:59:31 51°18.585 2°51.655 10.8 168 5.6 101880 90
2002-01-18 05:59:36 51°18.603 2°51.643 9 164 5.6 101890 90
2002-01-18 05:59:41 51°18.622 2°51.637 10.2 167 5.6 101890 90
2002-01-18 05:59:47 51°18.644 2°51.624 9.5 162 5.6 101880 90
2002-01-18 05:59:51 51°18.659 2°51.619 10.2 171 5.6 101880 90
2002-01-18 05:59:57 51°18.681 2°51.607 10.2 162 5.6 101890 90
2002-01-18 06:00:01 51°18.696 2°51.603 9.6 171 5.6 101890 90
2002-01-18 06:00:07 51°18.718 2°51.59 9.5 162 5.6 101890 90
2002-01-18 06:00:11 51°18.733 2°51.585 9 170 5.6 101890 90
2002-01-18 06:00:18 51°18.758 2°51.572 10.2 163 5.6 101890 90
2002-01-18 06:00:22 51°18.773 2°51.567 10.2 170 5.6 101890 90
2002-01-18 06:00:25 51°18.784 2°51.561 10.2 164 5.6 101890 90
2002-01-18 06:00:31 51°18.806 2°51.551 9.6 169 5.6 101890 90
2002-01-18 06:00:36 51°18.824 2°51.541 8.6 167 5.6 101890 90
2002-01-18 06:00:42 51°18.847 2°51.532 10.1 173 5.6 101890 90
2002-01-18 06:00:45 51°18.857 2°51.525 9.2 168 5.6 101890 90
2002-01-18 06:00:53 51°18.887 2°51.512 9.2 174 5.6 101890 90
2002-01-18 06:00:57 51°18.901 2°51.503 9.3 168 5.6 101890 90
2002-01-18 06:01:01 51°18.916 2°51.497 9.2 169 5.6 101890 90
2002-01-18 06:01:07 51°18.938 2°51.485 8.5 167 5.6 101900 90
2002-01-18 06:01:11 51°18.952 2°51.479 9.2 171 5.6 101900 90
2002-01-18 06:01:17 51°18.974 2°51.467 10.1 171 5.6 101900 90
2002-01-18 06:01:21 51°18.989 2°51.461 9.5 172 5.6 101900 90
2002-01-18 06:01:26 51°19.007 2°51.451 9.1 170 5.6 101900 90
2002-01-18 06:01:33 51°19.033 2°51.44 9.1 167 5.6 101900 90
2002-01-18 06:01:37 51°19.047 2°51.431 9.5 171 5.6 101900 90
2002-01-18 06:01:41 51°19.062 2°51.424 9.3 164 5.6 101900 90
2002-01-18 06:01:46 51°19.081 2°51.415 9.8 169 5.6 101900 90
2002-01-18 06:01:51 51°19.099 2°51.405 9.7 161 5.6 101900 90
2002-01-18 06:01:57 51°19.122 2°51.394 10.5 170 5.5 101900 90
2002-01-18 06:02:01 51°19.137 2°51.387 8.7 166 5.5 101900 90
2002-01-18 06:02:07 51°19.159 2°51.377 9.7 171 5.6 101900 90
2002-01-18 06:02:12 51°19.178 2°51.368 9.1 163 5.6 101900 90
2002-01-18 06:02:17 51°19.196 2°51.358 10.5 171 5.6 101900 90
2002-01-18 06:02:22 51°19.215 2°51.349 9.7 163 5.6 101900 90
2002-01-18 06:02:26 51°19.23 2°51.342 9.6 170 5.6 101900 90
2002-01-18 06:02:32 51°19.253 2°51.331 7.6 166 5.6 101900 90
2002-01-18 06:02:37 51°19.271 2°51.322 8.5 179 5.5 101900 90
2002-01-18 06:02:41 51°19.286 2°51.314 8.7 170 5.5 101900 90
2002-01-18 06:02:47 51°19.309 2°51.305 10.8 172 5.5 101900 90
2002-01-18 06:02:51 51°19.324 2°51.296 8.4 158 5.5 101900 90
2002-01-18 06:02:57 51°19.347 2°51.287 9.1 173 5.5 101900 90
2002-01-18 06:03:02 51°19.365 2°51.277 7.5 169 5.5 101900 90
2002-01-18 06:03:06 51°19.381 2°51.272 7.9 174 5.5 101910 90
2002-01-18 06:03:11 51°19.399 2°51.26 6.7 170 5.5 101910 90
2002-01-18 06:03:16 51°19.419 2°51.254 7.3 178 5.5 101900 90
2002-01-18 06:03:21 51°19.437 2°51.243 7.3 165 5.5 101900 90
2002-01-18 06:03:26 51°19.456 2°51.236 8 169 5.5 101910 90
2002-01-18 06:03:31 51°19.475 2°51.225 6.7 162 5.5 101910 90
2002-01-18 06:03:36 51°19.494 2°51.218 7.4 165 5.5 101910 90
2002-01-18 06:03:41 51°19.512 2°51.207 7.2 161 5.5 101910 90
2002-01-18 06:03:46 51°19.531 2°51.201 7.9 163 5.5 101910 90
2002-01-18 06:03:53 51°19.557 2°51.188 7.7 168 5.5 101910 90
2002-01-18 06:03:56 51°19.569 2°51.185 7.3 166 5.5 101900 90
2002-01-18 06:04:02 51°19.591 2°51.175 6.9 166 5.5 101900 90
2002-01-18 06:04:07 51°19.611 2°51.17 6.7 166 5.5 101900 90
2002-01-18 06:04:11 51°19.626 2°51.163 7.5 169 5.5 101900 90
2002-01-18 06:04:17 51°19.649 2°51.157 6.5 165 5.5 101910 90
2002-01-18 06:04:21 51°19.664 2°51.151 7.2 170 5.5 101910 90
2002-01-18 06:04:27 51°19.687 2°51.144 6.6 163 5.4 101910 90
2002-01-18 06:04:31 51°19.702 2°51.138 7.4 167 5.4 101910 90
2002-01-18 06:04:37 51°19.725 2°51.13 6.6 162 5.4 101910 90
2002-01-18 06:04:41 51°19.74 2°51.124 7.7 171 5.4 101910 90
2002-01-18 06:04:47 51°19.762 2°51.116 6.4 161 5.4 101900 90
2002-01-18 06:04:51 51°19.777 2°51.11 7.3 170 5.4 101900 90
2002-01-18 06:04:57 51°19.8 2°51.101 6.6 162 5.4 101910 90
2002-01-18 06:05:03 51°19.822 2°51.091 7.4 168 5.4 101910 90
2002-01-18 06:05:07 51°19.837 2°51.086 7.1 158 5.3 101910 90
2002-01-18 06:05:12 51°19.856 2°51.079 7.3 165 5.3 101910 90
2002-01-18 06:05:17 51°19.875 2°51.071 6.7 152 5.3 101910 90
2002-01-18 06:05:22 51°19.894 2°51.064 8.2 166 5.3 101910 90
2002-01-18 06:05:27 51°19.913 2°51.056 7.6 157 5.3 101900 90
2002-01-18 06:05:32 51°19.932 2°51.048 8.7 167 5.3 101900 90
2002-01-18 06:05:37 51°19.95 2°51.04 6.8 158 5.3 101910 90
2002-01-18 06:05:42 51°19.969 2°51.033 9.1 165 5.3 101910 90
2002-01-18 06:05:47 51°19.988 2°51.024 7.5 158 5.2 101910 90
2002-01-18 06:05:52 51°20.007 2°51.018 9 167 5.2 101910 90
2002-01-18 06:05:57 51°20.025 2°51.01 8.8 159 5.2 101900 90
2002-01-18 06:06:02 51°20.045 2°51.003 9.2 166 5.2 101900 90
2002-01-18 06:06:07 51°20.063 2°50.994 8.3 160 5.2 101900 90
2002-01-18 06:06:12 51°20.082 2°50.989 8.9 166 5.2 101900 90
2002-01-18 06:06:17 51°20.101 2°50.98 9.8 159 5.2 101900 90
2002-01-18 06:06:22 51°20.12 2°50.975 8.8 165 5.2 101900 90
2002-01-18 06:06:27 51°20.139 2°50.966 8.6 158 5.2 101900 90
2002-01-18 06:06:32 51°20.158 2°50.961 9.4 164 5.2 101900 90
2002-01-18 06:06:37 51°20.177 2°50.952 9.9 163 5.2 101900 90
2002-01-18 06:06:42 51°20.196 2°50.946 9.2 162 5.2 101900 90
2002-01-18 06:06:46 51°20.211 2°50.939 10.1 165 5.2 101900 90
2002-01-18 06:06:52 51°20.234 2°50.932 10.1 166 5.2 101900 90
2002-01-18 06:06:57 51°20.252 2°50.923 9.5 165 5.2 101900 91
2002-01-18 06:07:02 51°20.271 2°50.918 10 165 5.2 101900 91
2002-01-18 06:07:07 51°20.29 2°50.908 9.7 165 5.2 101900 91
2002-01-18 06:07:13 51°20.313 2°50.901 9.1 164 5.2 101900 91
2002-01-18 06:07:17 51°20.327 2°50.893 10.2 164 5.2 101900 91
2002-01-18 06:07:21 51°20.342 2°50.889 9.3 164 5.2 101900 91
2002-01-18 06:07:26 51°20.361 2°50.88 9.9 166 5.2 101890 91
2002-01-18 06:07:31 51°20.38 2°50.873 9.9 163 5.2 101890 91
2002-01-18 06:07:37 51°20.402 2°50.864 10.4 165 5.2 101890 91
2002-01-18 06:07:42 51°20.421 2°50.856 10.1 164 5.2 101890 91
2002-01-18 06:07:46 51°20.436 2°50.85 9.8 167 5.2 101900 91
2002-01-18 06:07:53 51°20.463 2°50.841 9 161 5.2 101900 91
2002-01-18 06:07:57 51°20.478 2°50.835 10.6 168 5.2 101900 91
2002-01-18 06:08:01 51°20.493 2°50.829 9 162 5.2 101900 91
2002-01-18 06:08:06 51°20.512 2°50.823 10.4 166 5.2 101900 91
2002-01-18 06:08:11 51°20.53 2°50.814 8.9 161 5.2 101900 91
2002-01-18 06:08:17 51°20.553 2°50.807 10.7 167 5.2 101890 91
2002-01-18 06:08:22 51°20.572 2°50.799 9.2 158 5.2 101890 91
2002-01-18 06:08:26 51°20.587 2°50.795 9.9 163 5.2 101900 91
2002-01-18 06:08:31 51°20.606 2°50.785 10.1 161 5.2 101900 91
2002-01-18 06:08:36 51°20.625 2°50.78 9.8 163 5.2 101900 91
2002-01-18 06:08:41 51°20.643 2°50.771 9.8 160 5.2 101900 91
2002-01-18 06:08:47 51°20.666 2°50.764 10.5 165 5.2 101900 91
2002-01-18 06:08:51 51°20.681 2°50.756 10.3 160 5.2 101900 91
2002-01-18 06:08:57 51°20.703 2°50.75 9.6 164 5.2 101890 91
2002-01-18 06:09:01 51°20.718 2°50.742 10 161 5.2 101890 91
2002-01-18 06:09:05 51°20.733 2°50.738 10.7 164 5.2 101890 91
2002-01-18 06:09:13 51°20.763 2°50.725 10.2 161 5.2 101890 91
2002-01-18 06:09:17 51°20.778 2°50.721 9.6 162 5.2 101890 91
2002-01-18 06:09:22 51°20.797 2°50.712 10 164 5.2 101890 91
2002-01-18 06:09:27 51°20.816 2°50.707 9.6 160 5.2 101900 91
2002-01-18 06:09:31 51°20.831 2°50.7 10 163 5.2 101900 91
2002-01-18 06:09:37 51°20.853 2°50.693 9.6 160 5.2 101890 91
2002-01-18 06:09:42 51°20.872 2°50.685 11.5 163 5.2 101890 91
2002-01-18 06:09:47 51°20.89 2°50.675 10.3 157 5.2 101890 91
2002-01-18 06:09:52 51°20.908 2°50.663 11.7 158 5.2 101890 91
2002-01-18 06:09:57 51°20.925 2°50.65 10.9 154 5.3 101890 91
2002-01-18 06:10:02 51°20.942 2°50.636 11.9 154 5.3 101890 91
2002-01-18 06:10:07 51°20.957 2°50.619 11.8 151 5.3 101890 91
2002-01-18 06:10:11 51°20.969 2°50.605 12.1 152 5.3 101890 91
2002-01-18 06:10:17 51°20.987 2°50.581 11.3 147 5.3 101890 91
2002-01-18 06:10:22 51°21.001 2°50.561 11.7 150 5.3 101890 91
2002-01-18 06:10:27 51°21.014 2°50.54 11.8 146 5.3 101890 91
2002-01-18 06:10:33 51°21.03 2°50.514 11.8 151 5.3 101890 91
2002-01-18 06:10:38 51°21.042 2°50.491 12.5 145 5.3 101880 91
2002-01-18 06:10:43 51°21.054 2°50.469 12.7 151 5.3 101880 91
2002-01-18 06:10:47 51°21.064 2°50.45 11 145 5.3 101880 91
2002-01-18 06:10:53 51°21.079 2°50.423 11.8 150 5.3 101880 91
2002-01-18 06:10:57 51°21.088 2°50.404 12 145 5.3 101880 91
2002-01-18 06:11:02 51°21.101 2°50.381 11.4 149 5.3 101880 91
2002-01-18 06:11:06 51°21.109 2°50.361 11.6 144 5.3 101880 91
2002-01-18 06:11:12 51°21.125 2°50.334 12.4 150 5.3 101880 91
2002-01-18 06:11:17 51°21.136 2°50.31 12.8 142 5.3 101880 91
2002-01-18 06:11:22 51°21.148 2°50.287 12 151 5.3 101880 91
2002-01-18 06:11:27 51°21.16 2°50.263 10.9 144 5.3 101890 91
2002-01-18 06:11:32 51°21.172 2°50.24 12.5 150 5.3 101890 91
2002-01-18 06:11:37 51°21.183 2°50.216 11.7 143 5.4 101890 91
2002-01-18 06:11:42 51°21.195 2°50.193 11.5 150 5.4 101890 91
2002-01-18 06:11:47 51°21.206 2°50.168 11.3 146 5.4 101890 91
2002-01-18 06:11:51 51°21.216 2°50.15 11.4 150 5.4 101890 91
2002-01-18 06:11:57 51°21.228 2°50.12 11.1 149 5.4 101890 91
2002-01-18 06:12:02 51°21.241 2°50.097 11.3 152 5.4 101890 91
2002-01-18 06:12:07 51°21.252 2°50.073 11.8 151 5.4 101890 91
2002-01-18 06:12:12 51°21.265 2°50.051 12.1 152 5.4 101890 91
2002-01-18 06:12:17 51°21.276 2°50.027 12.2 150 5.4 101890 91
2002-01-18 06:12:22 51°21.289 2°50.004 11.1 151 5.4 101890 91
2002-01-18 06:12:27 51°21.301 2°49.981 10.7 150 5.4 101890 91
2002-01-18 06:12:32 51°21.313 2°49.958 10.6 150 5.4 101890 91
2002-01-18 06:12:37 51°21.325 2°49.935 11 148 5.4 101890 91
2002-01-18 06:12:42 51°21.338 2°49.912 11 150 5.4 101890 91
2002-01-18 06:12:47 51°21.349 2°49.888 12 152 5.4 101890 91
2002-01-18 06:12:52 51°21.362 2°49.865 10.7 148 5.4 101890 91
2002-01-18 06:12:57 51°21.374 2°49.841 11 152 5.4 101890 91
2002-01-18 06:13:02 51°21.386 2°49.818 11.6 146 5.4 101890 91
2002-01-18 06:13:07 51°21.399 2°49.795 11.8 153 5.4 101890 91
2002-01-18 06:13:12 51°21.411 2°49.772 10.4 148 5.4 101890 91
2002-01-18 06:13:17 51°21.424 2°49.749 10.9 153 5.4 101890 90
2002-01-18 06:13:22 51°21.437 2°49.726 11.5 149 5.4 101890 90
2002-01-18 06:13:26 51°21.447 2°49.708 11.6 152 5.4 101880 90
2002-01-18 06:13:33 51°21.465 2°49.677 11.4 149 5.4 101880 90
2002-01-18 06:13:37 51°21.475 2°49.658 10.8 152 5.4 101890 90
2002-01-18 06:13:43 51°21.491 2°49.632 10.3 148 5.4 101890 90
2002-01-18 06:13:47 51°21.502 2°49.615 11.9 153 5.4 101890 90
2002-01-18 06:13:53 51°21.518 2°49.591 11.6 149 5.4 101890 90
2002-01-18 06:13:57 51°21.53 2°49.574 11.7 153 5.4 101890 90
2002-01-18 06:14:01 51°21.541 2°49.557 9.9 151 5.4 101890 90
2002-01-18 06:14:07 51°21.559 2°49.535 11.2 154 5.4 101890 90
2002-01-18 06:14:11 51°21.571 2°49.52 10.1 150 5.4 101890 90
2002-01-18 06:14:17 51°21.589 2°49.498 11.4 153 5.4 101900 90
2002-01-18 06:14:21 51°21.602 2°49.484 11.7 152 5.4 101900 90
2002-01-18 06:14:27 51°21.621 2°49.465 11.4 154 5.4 101900 90
2002-01-18 06:14:31 51°21.634 2°49.452 11.4 155 5.4 101900 90
2002-01-18 06:14:36 51°21.651 2°49.437 11.1 157 5.3 101900 90
2002-01-18 06:14:41 51°21.668 2°49.423 10.7 155 5.3 101900 90
2002-01-18 06:14:47 51°21.688 2°49.405 10.5 154 5.3 101900 90
2002-01-18 06:14:53 51°21.708 2°49.39 10 154 5.3 101900 90
2002-01-18 06:14:56 51°21.719 2°49.381 11.1 156 5.3 101910 90
2002-01-18 06:15:01 51°21.735 2°49.367 11.6 153 5.3 101910 90
2002-01-18 06:15:07 51°21.756 2°49.352 11.2 157 5.3 101910 90
2002-01-18 06:15:11 51°21.77 2°49.342 10.7 155 5.3 101910 90
2002-01-18 06:15:17 51°21.791 2°49.327 10.9 159 5.3 101900 90
2002-01-18 06:15:21 51°21.805 2°49.318 10.5 152 5.3 101900 90
2002-01-18 06:15:25 51°21.82 2°49.311 11 161 5.3 101900 90
2002-01-18 06:15:33 51°21.849 2°49.293 10.4 154 5.3 101900 90
2002-01-18 06:15:37 51°21.863 2°49.285 11.2 160 5.3 101900 90
2002-01-18 06:15:41 51°21.877 2°49.275 11 152 5.3 101900 90
2002-01-18 06:15:47 51°21.899 2°49.264 10.9 160 5.3 101900 90
2002-01-18 06:15:53 51°21.92 2°49.251 11.3 150 5.3 101900 90
2002-01-18 06:15:57 51°21.935 2°49.244 11.6 159 5.3 101900 90
2002-01-18 06:16:01 51°21.949 2°49.233 11.3 150 5.3 101900 90
2002-01-18 06:16:05 51°21.963 2°49.227 10.8 158 5.4 101900 90
2002-01-18 06:16:11 51°21.984 2°49.211 10.6 154 5.4 101900 90
2002-01-18 06:16:17 51°22.006 2°49.2 10.8 156 5.4 101900 90
2002-01-18 06:16:22 51°22.023 2°49.188 10.5 154 5.4 101900 90
2002-01-18 06:16:27 51°22.042 2°49.179 10.7 154 5.4 101900 90
2002-01-18 06:16:32 51°22.06 2°49.168 10.3 156 5.4 101900 90
2002-01-18 06:16:37 51°22.078 2°49.161 10.4 153 5.4 101900 90
2002-01-18 06:16:42 51°22.096 2°49.151 9.9 155 5.4 101900 90
2002-01-18 06:16:47 51°22.115 2°49.144 10 153 5.3 101900 90
2002-01-18 06:16:53 51°22.137 2°49.132 10.3 157 5.3 101900 90
2002-01-18 06:16:57 51°22.152 2°49.127 10.7 152 5.4 101900 90
2002-01-18 06:17:02 51°22.17 2°49.117 10.5 158 5.4 101900 90
2002-01-18 06:17:07 51°22.189 2°49.109 11.1 153 5.4 101900 90
2002-01-18 06:17:11 51°22.203 2°49.102 10 156 5.4 101900 90
2002-01-18 06:17:17 51°22.225 2°49.092 11.5 155 5.4 101890 90
2002-01-18 06:17:21 51°22.24 2°49.086 11.3 160 5.4 101890 90
2002-01-18 06:17:27 51°22.263 2°49.075 10.7 153 5.4 101900 90
2002-01-18 06:17:33 51°22.285 2°49.065 10.5 157 5.4 101900 90
2002-01-18 06:17:37 51°22.3 2°49.059 11.4 154 5.4 101900 90
2002-01-18 06:17:42 51°22.318 2°49.05 11.3 160 5.4 101900 90
2002-01-18 06:17:47 51°22.336 2°49.042 10.2 151 5.5 101900 90
2002-01-18 06:17:51 51°22.351 2°49.035 12.1 159 5.5 101900 90
2002-01-18 06:17:57 51°22.373 2°49.024 11.4 155 5.4 101900 90
2002-01-18 06:18:02 51°22.391 2°49.014 11.6 160 5.4 101900 90
2002-01-18 06:18:07 51°22.41 2°49.005 11.2 152 5.4 101900 90
2002-01-18 06:18:11 51°22.425 2°48.999 12.1 161 5.4 101900 90
2002-01-18 06:18:17 51°22.446 2°48.986 10.4 152 5.4 101900 90
2002-01-18 06:18:21 51°22.461 2°48.979 11.2 160 5.4 101900 90
2002-01-18 06:18:26 51°22.479 2°48.968 10.6 153 5.4 101890 90
2002-01-18 06:18:31 51°22.497 2°48.961 12 159 5.4 101890 90
2002-01-18 06:18:37 51°22.519 2°48.95 11 159 5.4 101900 90
2002-01-18 06:18:42 51°22.538 2°48.944 10.7 160 5.4 101900 90
2002-01-18 06:18:46 51°22.553 2°48.938 11.5 160 5.4 101900 90
2002-01-18 06:18:52 51°22.576 2°48.931 11.6 160 5.4 101900 90
2002-01-18 06:18:55 51°22.588 2°48.927 11.7 162 5.4 101900 90
2002-01-18 06:19:01 51°22.61 2°48.92 11 163 5.4 101900 90
2002-01-18 06:19:06 51°22.629 2°48.913 11.6 161 5.4 101890 90
2002-01-18 06:19:12 51°22.653 2°48.908 10.8 161 5.4 101890 90
2002-01-18 06:19:16 51°22.668 2°48.902 11.3 163 5.4 101900 90
2002-01-18 06:19:22 51°22.691 2°48.897 11.4 164 5.4 101900 90
2002-01-18 06:19:27 51°22.71 2°48.89 12.1 162 5.4 101900 90
2002-01-18 06:19:32 51°22.729 2°48.887 11.2 165 5.4 101900 90
2002-01-18 06:19:37 51°22.749 2°48.88 10.7 163 5.4 101900 90
2002-01-18 06:19:42 51°22.768 2°48.878 10.5 162 5.4 101900 90
2002-01-18 06:19:47 51°22.788 2°48.872 11.6 164 5.4 101900 90
2002-01-18 06:19:51 51°22.803 2°48.87 10 161 5.4 101900 90
2002-01-18 06:19:56 51°22.823 2°48.866 12.1 164 5.4 101900 90
2002-01-18 06:20:02 51°22.847 2°48.861 11 160 5.4 101900 90
2002-01-18 06:20:06 51°22.862 2°48.857 12.1 165 5.4 101900 90
2002-01-18 06:20:10 51°22.878 2°48.852 10.1 158 5.4 101900 90
2002-01-18 06:20:16 51°22.901 2°48.847 11.6 166 5.4 101900 90
2002-01-18 06:20:21 51°22.92 2°48.84 10.9 156 5.4 101900 90
2002-01-18 06:20:26 51°22.94 2°48.836 11.3 164 5.4 101900 90
2002-01-18 06:20:31 51°22.959 2°48.83 10.5 156 5.4 101900 90
2002-01-18 06:20:37 51°22.983 2°48.825 10.8 164 5.4 101900 90
2002-01-18 06:20:41 51°22.998 2°48.818 9.6 155 5.4 101900 90
2002-01-18 06:20:47 51°23.021 2°48.814 11.4 164 5.5 101900 90
2002-01-18 06:20:51 51°23.037 2°48.807 10 156 5.5 101900 90
2002-01-18 06:20:57 51°23.06 2°48.803 10.7 161 5.5 101900 90
2002-01-18 06:21:01 51°23.075 2°48.796 9.9 156 5.5 101900 90
2002-01-18 06:21:06 51°23.095 2°48.793 10.5 163 5.5 101900 90
2002-01-18 06:21:12 51°23.118 2°48.784 9.9 157 5.5 101900 90
2002-01-18 06:21:18 51°23.141 2°48.779 11 162 5.5 101900 90
2002-01-18 06:21:21 51°23.153 2°48.774 9.8 156 5.5 101900 90
2002-01-18 06:21:26 51°23.172 2°48.771 11.2 164 5.5 101900 90
2002-01-18 06:21:31 51°23.192 2°48.764 10 158 5.5 101900 90
2002-01-18 06:21:36 51°23.211 2°48.761 11.2 163 5.4 101900 90
2002-01-18 06:21:41 51°23.23 2°48.753 10.3 159 5.4 101900 90
2002-01-18 06:21:46 51°23.25 2°48.75 10.1 160 5.4 101900 90
2002-01-18 06:21:51 51°23.269 2°48.743 10.1 162 5.4 101900 90
2002-01-18 06:21:57 51°23.292 2°48.738 10.2 157 5.5 101900 90
2002-01-18 06:22:01 51°23.308 2°48.732 11.6 163 5.5 101900 90
2002-01-18 06:22:06 51°23.327 2°48.726 9.7 156 5.5 101890 90
2002-01-18 06:22:11 51°23.346 2°48.721 10.4 163 5.5 101890 90
2002-01-18 06:22:16 51°23.366 2°48.714 9.2 157 5.5 101890 90
2002-01-18 06:22:21 51°23.385 2°48.71 11.4 162 5.5 101890 90
2002-01-18 06:22:26 51°23.404 2°48.702 10.8 159 5.5 101890 90
2002-01-18 06:22:31 51°23.424 2°48.698 10.5 166 5.5 101890 90
2002-01-18 06:22:36 51°23.443 2°48.692 10.7 161 5.5 101900 90
2002-01-18 06:22:41 51°23.462 2°48.689 10.9 164 5.5 101900 90
2002-01-18 06:22:46 51°23.482 2°48.686 10.4 164 5.5 101900 90
2002-01-18 06:22:52 51°23.505 2°48.682 10.7 164 5.5 101900 90
2002-01-18 06:22:56 51°23.521 2°48.682 9.9 164 5.4 101900 90
2002-01-18 06:23:01 51°23.54 2°48.679 10.1 165 5.4 101900 90
2002-01-18 06:23:06 51°23.56 2°48.678 10.2 161 5.4 101900 90
2002-01-18 06:23:11 51°23.58 2°48.676 10.7 164 5.4 101900 90
2002-01-18 06:23:16 51°23.599 2°48.676 10.7 166 5.4 101900 90
2002-01-18 06:23:21 51°23.619 2°48.673 10.8 167 5.4 101900 90
2002-01-18 06:23:28 51°23.646 2°48.672 11 164 5.5 101900 90
2002-01-18 06:23:30 51°23.654 2°48.671 10.2 165 5.5 101900 90
2002-01-18 06:23:37 51°23.682 2°48.667 10.4 162 5.5 101900 90
2002-01-18 06:23:41 51°23.697 2°48.666 11 171 5.5 101900 90
2002-01-18 06:23:46 51°23.717 2°48.662 10.4 161 5.5 101900 90
2002-01-18 06:23:50 51°23.733 2°48.663 11.7 169 5.5 101900 90
2002-01-18 06:23:56 51°23.756 2°48.657 11 166 5.5 101900 90
2002-01-18 06:24:01 51°23.775 2°48.657 12 168 5.5 101900 90
2002-01-18 06:24:07 51°23.799 2°48.652 10.5 165 5.5 101890 90
2002-01-18 06:24:12 51°23.818 2°48.651 11.7 169 5.5 101890 90
2002-01-18 06:24:16 51°23.834 2°48.647 10.2 164 5.5 101900 90
2002-01-18 06:24:21 51°23.853 2°48.646 11.5 169 5.5 101900 90
2002-01-18 06:24:26 51°23.872 2°48.642 10.2 169 5.5 101900 90
2002-01-18 06:24:30 51°23.888 2°48.64 10.7 168 5.5 101900 90
2002-01-18 06:24:35 51°23.908 2°48.637 11.6 167 5.5 101900 90
2002-01-18 06:24:41 51°23.931 2°48.633 10.5 166 5.5 101900 90
2002-01-18 06:24:46 51°23.951 2°48.631 11.4 172 5.5 101900 90
2002-01-18 06:24:50 51°23.966 2°48.627 10 161 5.5 101900 90
2002-01-18 06:24:56 51°23.99 2°48.626 11.5 172 5.5 101900 90
2002-01-18 06:25:01 51°24.009 2°48.621 11 165 5.5 101900 90
2002-01-18 06:25:07 51°24.033 2°48.62 11.3 171 5.5 101900 90
2002-01-18 06:25:12 51°24.053 2°48.615 11 167 5.5 101900 90
2002-01-18 06:25:16 51°24.068 2°48.615 10.5 168 5.5 101900 90
2002-01-18 06:25:21 51°24.088 2°48.611 11.1 166 5.5 101900 90
2002-01-18 06:25:26 51°24.108 2°48.609 11.3 167 5.5 101900 90
2002-01-18 06:25:31 51°24.127 2°48.605 10.2 162 5.5 101900 90
2002-01-18 06:25:36 51°24.147 2°48.605 11.4 171 5.5 101900 90
2002-01-18 06:25:42 51°24.17 2°48.599 10.3 165 5.5 101900 90
2002-01-18 06:25:46 51°24.186 2°48.6 10.5 168 5.5 101900 90
2002-01-18 06:25:51 51°24.205 2°48.594 9.4 162 5.5 101900 90
2002-01-18 06:25:56 51°24.225 2°48.593 10.5 170 5.5 101900 90
2002-01-18 06:26:01 51°24.244 2°48.588 10.6 165 5.5 101900 90
2002-01-18 06:26:06 51°24.264 2°48.587 10.2 167 5.5 101900 90
2002-01-18 06:26:11 51°24.283 2°48.583 10.5 168 5.5 101900 90
2002-01-18 06:26:17 51°24.307 2°48.581 9.5 168 5.5 101900 90
2002-01-18 06:26:21 51°24.323 2°48.578 9.6 167 5.5 101900 90
2002-01-18 06:26:26 51°24.342 2°48.575 10.1 165 5.5 101900 90
2002-01-18 06:26:31 51°24.362 2°48.573 10.6 172 5.5 101900 90
2002-01-18 06:26:36 51°24.381 2°48.57 8.9 162 5.5 101900 90
2002-01-18 06:26:41 51°24.401 2°48.569 10.5 172 5.5 101900 90
2002-01-18 06:26:45 51°24.417 2°48.565 9.3 165 5.6 101910 90
2002-01-18 06:26:51 51°24.441 2°48.564 10.3 175 5.6 101910 90
2002-01-18 06:26:58 51°24.468 2°48.561 8.5 166 5.5 101900 90
2002-01-18 06:27:02 51°24.484 2°48.559 10.6 170 5.5 101900 90
2002-01-18 06:27:06 51°24.499 2°48.556 9.4 164 5.6 101910 90
2002-01-18 06:27:11 51°24.519 2°48.557 10.1 175 5.6 101910 90
2002-01-18 06:27:16 51°24.539 2°48.552 9 161 5.6 101900 90
2002-01-18 06:27:21 51°24.559 2°48.552 9.9 172 5.6 101900 90
2002-01-18 06:27:26 51°24.578 2°48.547 9.2 164 5.5 101900 90
2002-01-18 06:27:32 51°24.602 2°48.546 9.4 172 5.5 101900 90
2002-01-18 06:27:37 51°24.621 2°48.542 9.6 163 5.5 101900 90
2002-01-18 06:27:41 51°24.637 2°48.542 9.2 169 5.5 101900 90
2002-01-18 06:27:47 51°24.661 2°48.537 9.2 166 5.6 101900 90
2002-01-18 06:27:52 51°24.681 2°48.537 10.3 172 5.6 101900 90
2002-01-18 06:27:56 51°24.696 2°48.532 9.7 165 5.5 101900 90
2002-01-18 06:28:01 51°24.716 2°48.532 10.3 170 5.5 101900 90
2002-01-18 06:28:07 51°24.74 2°48.527 9.9 166 5.5 101900 90
2002-01-18 06:28:12 51°24.759 2°48.527 9.7 168 5.5 101900 90
2002-01-18 06:28:17 51°24.779 2°48.523 10.4 173 5.5 101900 90
2002-01-18 06:28:22 51°24.799 2°48.523 10.1 168 5.5 101900 90
2002-01-18 06:28:26 51°24.815 2°48.521 9.6 172 5.5 101900 90
2002-01-18 06:28:33 51°24.842 2°48.519 10 165 5.5 101900 90
2002-01-18 06:28:36 51°24.854 2°48.517 10.6 170 5.5 101900 90
2002-01-18 06:28:42 51°24.877 2°48.515 9.3 166 5.5 101900 90
2002-01-18 06:28:47 51°24.897 2°48.513 10 170 5.5 101900 90
2002-01-18 06:28:52 51°24.917 2°48.51 9.8 165 5.5 101900 90
2002-01-18 06:28:56 51°24.932 2°48.51 10 171 5.5 101910 90
2002-01-18 06:29:02 51°24.956 2°48.506 8.9 165 5.5 101910 90
2002-01-18 06:29:07 51°24.974 2°48.506 9.9 170 5.5 101900 90
2002-01-18 06:29:11 51°24.988 2°48.503 9.7 174 5.5 101900 90
2002-01-18 06:29:17 51°25.009 2°48.502 9.6 170 5.5 101900 90
2002-01-18 06:29:23 51°25.029 2°48.499 8.7 171 5.5 101900 90
2002-01-18 06:29:26 51°25.039 2°48.5 8.6 172 5.5 101910 90
2002-01-18 06:29:31 51°25.055 2°48.497 9.1 174 5.5 101910 90
2002-01-18 06:29:37 51°25.074 2°48.497 8.6 174 5.5 101910 90
2002-01-18 06:29:41 51°25.087 2°48.495 8.7 171 5.5 101910 90
2002-01-18 06:29:47 51°25.106 2°48.494 8.9 176 5.5 101910 90
2002-01-18 06:29:52 51°25.121 2°48.492 9.2 176 5.5 101910 90
2002-01-18 06:29:56 51°25.133 2°48.491 8.6 174 5.5 101910 90
2002-01-18 06:30:01 51°25.148 2°48.489 9.5 176 5.5 101910 90
2002-01-18 06:30:06 51°25.163 2°48.488 9.3 174 5.5 101910 90
2002-01-18 06:30:11 51°25.178 2°48.486 9.7 177 5.5 101910 90
2002-01-18 06:30:16 51°25.194 2°48.485 9.4 175 5.5 101910 90
2002-01-18 06:30:22 51°25.212 2°48.483 8.8 177 5.5 101910 90
2002-01-18 06:30:27 51°25.227 2°48.482 8.8 175 5.5 101900 90
2002-01-18 06:30:31 51°25.239 2°48.481 9 178 5.5 101900 90
2002-01-18 06:30:36 51°25.254 2°48.479 8.1 170 5.6 101900 90
2002-01-18 06:30:41 51°25.269 2°48.479 8.8 175 5.6 101900 90
2002-01-18 06:30:45 51°25.28 2°48.476 8.3 174 5.6 101910 90
2002-01-18 06:30:51 51°25.298 2°48.476 9.4 177 5.6 101910 90
2002-01-18 06:30:56 51°25.313 2°48.473 9.5 175 5.6 101900 90
2002-01-18 06:31:02 51°25.331 2°48.472 10 177 5.6 101900 90
2002-01-18 06:31:07 51°25.346 2°48.469 8.6 175 5.6 101900 90
2002-01-18 06:31:13 51°25.364 2°48.468 9.4 177 5.6 101900 90
2002-01-18 06:31:16 51°25.372 2°48.467 9.2 174 5.6 101900 90
2002-01-18 06:31:21 51°25.387 2°48.467 8.8 179 5.6 101900 90
2002-01-18 06:31:27 51°25.405 2°48.465 9.2 177 5.6 101900 90
2002-01-18 06:31:31 51°25.417 2°48.465 9.1 178 5.6 101900 90
2002-01-18 06:31:37 51°25.435 2°48.463 9.6 176 5.6 101900 90
2002-01-18 06:31:42 51°25.45 2°48.462 10.1 179 5.6 101900 90
2002-01-18 06:31:47 51°25.465 2°48.46 8.3 174 5.6 101900 90
2002-01-18 06:31:52 51°25.479 2°48.459 8.6 180 5.6 101900 90
2002-01-18 06:31:57 51°25.494 2°48.458 9.2 175 5.6 101900 90
2002-01-18 06:32:01 51°25.506 2°48.458 9.7 180 5.6 101900 90
2002-01-18 06:32:06 51°25.521 2°48.455 8.5 177 5.6 101900 90
2002-01-18 06:32:11 51°25.536 2°48.454 9.9 179 5.6 101900 90
2002-01-18 06:32:17 51°25.554 2°48.452 9.6 177 5.6 101900 90
2002-01-18 06:32:21 51°25.565 2°48.451 8.8 178 5.6 101900 90
2002-01-18 06:32:26 51°25.58 2°48.449 9.4 179 5.6 101890 90
2002-01-18 06:32:31 51°25.595 2°48.448 8.8 177 5.6 101890 90
2002-01-18 06:32:37 51°25.613 2°48.446 9.6 177 5.6 101900 89
2002-01-18 06:32:41 51°25.625 2°48.445 8.6 177 5.6 101900 89
2002-01-18 06:32:47 51°25.643 2°48.444 9.2 178 5.6 101900 89
2002-01-18 06:32:51 51°25.654 2°48.441 8.5 174 5.6 101900 89
2002-01-18 06:32:57 51°25.672 2°48.441 8.9 182 5.6 101900 89
2002-01-18 06:33:01 51°25.684 2°48.439 8.6 176 5.6 101900 89
2002-01-18 06:33:06 51°25.699 2°48.439 9 181 5.6 101900 89
2002-01-18 06:33:11 51°25.714 2°48.437 8.4 177 5.6 101900 89
2002-01-18 06:33:17 51°25.731 2°48.436 8.8 182 5.6 101910 89
2002-01-18 06:33:22 51°25.745 2°48.436 8.5 182 5.6 101910 89
2002-01-18 06:33:26 51°25.755 2°48.435 8.3 182 5.6 101900 89
2002-01-18 06:33:31 51°25.768 2°48.435 7.7 184 5.6 101900 89
2002-01-18 06:33:37 51°25.782 2°48.434 7.2 184 5.6 101900 89
2002-01-18 06:33:41 51°25.791 2°48.434 7.4 188 5.6 101900 89
2002-01-18 06:33:47 51°25.805 2°48.434 7.9 190 5.6 101910 89
2002-01-18 06:33:51 51°25.813 2°48.435 7.5 189 5.6 101910 89
2002-01-18 06:33:56 51°25.824 2°48.436 7.6 191 5.6 101910 89
2002-01-18 06:34:03 51°25.838 2°48.437 7 192 5.6 101910 89
2002-01-18 06:34:07 51°25.846 2°48.438 7.6 194 5.6 101920 89
2002-01-18 06:34:13 51°25.857 2°48.439 7.1 197 5.6 101920 89
2002-01-18 06:34:17 51°25.865 2°48.439 7.5 192 5.6 101920 89
2002-01-18 06:34:22 51°25.874 2°48.44 6.9 193 5.6 101920 89
2002-01-18 06:34:27 51°25.883 2°48.44 7.1 196 5.6 101910 89
2002-01-18 06:34:33 51°25.893 2°48.441 7 194 5.6 101910 89
2002-01-18 06:34:37 51°25.899 2°48.441 7 196 5.6 101910 89
2002-01-18 06:34:41 51°25.905 2°48.441 7.1 194 5.6 101910 89
2002-01-18 06:34:45 51°25.912 2°48.441 6.5 194 5.6 101910 89
2002-01-18 06:34:51 51°25.921 2°48.441 6.5 194 5.6 101910 89
2002-01-18 06:34:57 51°25.929 2°48.441 6.6 191 5.6 101910 89
2002-01-18 06:35:01 51°25.935 2°48.441 6.8 193 5.6 101910 89
2002-01-18 06:35:05 51°25.941 2°48.44 7 192 5.7 101910 89
2002-01-18 06:35:11 51°25.949 2°48.439 7.2 196 5.7 101910 89
2002-01-18 06:35:17 51°25.956 2°48.438 6 194 5.6 101920 89
2002-01-18 06:35:22 51°25.963 2°48.437 6.2 192 5.6 101920 89
2002-01-18 06:35:26 51°25.968 2°48.436 7.2 191 5.6 101910 89
2002-01-18 06:35:31 51°25.974 2°48.435 6.5 193 5.6 101910 89
2002-01-18 06:35:37 51°25.981 2°48.434 6.2 193 5.6 101910 89
2002-01-18 06:35:41 51°25.985 2°48.432 6.3 191 5.6 101910 89
2002-01-18 06:35:47 51°25.992 2°48.431 6.7 195 5.7 101920 89
2002-01-18 06:35:51 51°25.997 2°48.43 6.9 194 5.7 101920 89
2002-01-18 06:35:55 51°26.001 2°48.429 6.9 191 5.6 101910 89
2002-01-18 06:36:02 51°26.008 2°48.427 6.7 190 5.6 101910 89
2002-01-18 06:36:06 51°26.013 2°48.426 3.3 191 5.7 101920 89
2002-01-18 06:36:13 51°26.02 2°48.424 6.1 193 5.7 101920 89
2002-01-18 06:36:17 51°26.024 2°48.423 6.3 188 5.6 101910 89
2002-01-18 06:36:22 51°26.029 2°48.421 6.7 191 5.6 101910 89
2002-01-18 06:36:27 51°26.034 2°48.42 5.9 189 5.6 101910 89
2002-01-18 06:36:32 51°26.039 2°48.418 6.3 192 5.6 101910 89
2002-01-18 06:36:37 51°26.043 2°48.417 6 191 5.7 101910 89
2002-01-18 06:36:42 51°26.048 2°48.415 6.4 190 5.7 101910 89
2002-01-18 06:36:47 51°26.053 2°48.414 6.7 189 5.7 101910 89
2002-01-18 06:36:51 51°26.056 2°48.412 5.9 189 5.7 101910 89
2002-01-18 06:36:58 51°26.063 2°48.41 5.7 191 5.7 101920 89
2002-01-18 06:37:02 51°26.066 2°48.409 6 190 5.7 101920 89
2002-01-18 06:37:05 51°26.069 2°48.408 5.9 186 5.7 101910 89
2002-01-18 06:37:11 51°26.074 2°48.406 6.1 190 5.7 101910 89
2002-01-18 06:37:17 51°26.079 2°48.404 6 190 5.7 101910 89
2002-01-18 06:37:22 51°26.084 2°48.402 6.1 187 5.7 101910 89
2002-01-18 06:37:27 51°26.088 2°48.4 5.9 186 5.7 101910 89
2002-01-18 06:37:31 51°26.091 2°48.399 6.5 186 5.7 101910 89
2002-01-18 06:37:37 51°26.096 2°48.396 6.8 187 5.7 101920 89
2002-01-18 06:37:42 51°26.1 2°48.394 6 187 5.7 101920 89
2002-01-18 06:37:47 51°26.104 2°48.393 6.2 187 5.7 101920 89
2002-01-18 06:37:51 51°26.107 2°48.391 6.3 188 5.7 101920 89
2002-01-18 06:37:57 51°26.112 2°48.389 6.4 187 5.7 101920 89
2002-01-18 06:38:03 51°26.117 2°48.386 6 185 5.7 101920 89
2002-01-18 06:38:07 51°26.12 2°48.385 6.3 191 5.7 101920 89
2002-01-18 06:38:12 51°26.124 2°48.383 6.1 187 5.7 101920 89
2002-01-18 06:38:17 51°26.128 2°48.381 6.2 186 5.7 101920 89
2002-01-18 06:38:22 51°26.131 2°48.38 6.2 188 5.7 101920 89
2002-01-18 06:38:27 51°26.135 2°48.378 6.3 185 5.7 101910 89
2002-01-18 06:38:32 51°26.139 2°48.376 6.2 182 5.7 101910 89
2002-01-18 06:38:37 51°26.142 2°48.375 5.7 187 5.7 101910 89
2002-01-18 06:38:42 51°26.145 2°48.373 5.5 189 5.7 101910 89
2002-01-18 06:38:47 51°26.149 2°48.372 5.8 192 5.7 101920 89
2002-01-18 06:38:52 51°26.152 2°48.371 5.7 190 5.7 101920 89
2002-01-18 06:38:58 51°26.156 2°48.369 6.4 190 5.6 101920 89
2002-01-18 06:39:02 51°26.159 2°48.368 5.8 191 5.6 101920 89
2002-01-18 06:39:07 51°26.162 2°48.367 6.4 193 5.7 101920 89
2002-01-18 06:39:13 51°26.166 2°48.366 6 195 5.7 101920 89
2002-01-18 06:39:17 51°26.168 2°48.366 5.9 195 5.7 101920 89
2002-01-18 06:39:22 51°26.171 2°48.365 5.9 194 5.7 101920 89
2002-01-18 06:39:27 51°26.174 2°48.364 5.9 197 5.6 101920 89
2002-01-18 06:39:33 51°26.178 2°48.363 5.9 199 5.6 101920 89
2002-01-18 06:39:36 51°26.179 2°48.363 5.5 199 5.7 101920 89
2002-01-18 06:39:42 51°26.183 2°48.362 5.6 198 5.7 101920 89
2002-01-18 06:39:47 51°26.186 2°48.362 5.4 198 5.7 101910 89
2002-01-18 06:39:52 51°26.189 2°48.361 5.9 202 5.7 101910 89
2002-01-18 06:39:57 51°26.192 2°48.361 5.5 205 5.7 101920 89
2002-01-18 06:40:02 51°26.194 2°48.361 6.2 207 5.7 101920 89
2002-01-18 06:40:07 51°26.197 2°48.36 5.9 202 5.6 101920 89
2002-01-18 06:40:11 51°26.199 2°48.36 3.3 201 5.6 101920 89
2002-01-18 06:40:18 51°26.203 2°48.36 5.7 203 5.7 101920 89
2002-01-18 06:40:22 51°26.205 2°48.36 5.6 205 5.7 101920 89
2002-01-18 06:40:26 51°26.207 2°48.36 5.7 207 5.7 101920 89
2002-01-18 06:40:31 51°26.21 2°48.36 6.1 208 5.7 101920 89
2002-01-18 06:40:36 51°26.213 2°48.36 5.5 205 5.7 101920 89
2002-01-18 06:40:41 51°26.215 2°48.36 5.9 206 5.7 101920 89
2002-01-18 06:40:46 51°26.218 2°48.36 5.7 208 5.7 101920 89
2002-01-18 06:40:53 51°26.221 2°48.36 5.5 209 5.7 101920 89
2002-01-18 06:40:57 51°26.223 2°48.361 5.3 209 5.7 101920 89
2002-01-18 06:41:01 51°26.225 2°48.361 4.8 206 5.7 101920 89
2002-01-18 06:41:06 51°26.228 2°48.361 4.2 214 5.7 101920 89
2002-01-18 06:41:11 51°26.23 2°48.362 4.7 213 5.7 101920 89
2002-01-18 06:41:17 51°26.233 2°48.362 4.8 212 5.7 101920 89
2002-01-18 06:41:21 51°26.235 2°48.363 4.7 213 5.7 101920 89
2002-01-18 06:41:26 51°26.237 2°48.363 4 207 5.7 101920 89
2002-01-18 06:41:33 51°26.241 2°48.364 4.2 208 5.7 101920 89
2002-01-18 06:41:37 51°26.243 2°48.364 3.2 211 5.7 101920 89
2002-01-18 06:41:41 51°26.244 2°48.365 4.8 216 5.7 101920 89
2002-01-18 06:41:47 51°26.247 2°48.366 3 218 5.7 101920 89
2002-01-18 06:41:51 51°26.249 2°48.366 4 222 5.7 101920 89
2002-01-18 06:41:56 51°26.252 2°48.367 5.1 216 5.7 101920 89
2002-01-18 06:42:03 51°26.255 2°48.369 3.5 204 5.7 101920 89
2002-01-18 06:42:06 51°26.256 2°48.369 3.5 197 5.7 101920 89
2002-01-18 06:42:12 51°26.259 2°48.37 2.8 213 5.7 101920 89
2002-01-18 06:42:17 51°26.261 2°48.371 3.1 217 5.7 101920 89
2002-01-18 06:42:22 51°26.263 2°48.372 2.4 219 5.7 101920 89
2002-01-18 06:42:27 51°26.265 2°48.373 2.3 224 5.7 101920 88
2002-01-18 06:42:33 51°26.268 2°48.374 2.5 220 5.7 101920 88
2002-01-18 06:42:37 51°26.269 2°48.375 2.3 209 5.7 101920 88
2002-01-18 06:42:42 51°26.271 2°48.376 2.2 228 5.7 101920 88
2002-01-18 06:42:47 51°26.274 2°48.377 2.5 212 5.7 101930 88
2002-01-18 06:42:52 51°26.276 2°48.378 1.8 228 5.7 101930 88
2002-01-18 06:42:57 51°26.278 2°48.379 2.3 224 5.7 101920 88
2002-01-18 06:43:02 51°26.28 2°48.381 2 220 5.7 101920 88
2002-01-18 06:43:07 51°26.282 2°48.382 2.1 226 5.7 101920 88
2002-01-18 06:43:12 51°26.284 2°48.383 1.5 241 5.7 101920 88
2002-01-18 06:43:17 51°26.286 2°48.384 1.4 316 5.7 101920 88
2002-01-18 06:43:22 51°26.288 2°48.385 1.5 233 5.7 101920 88
2002-01-18 06:43:26 51°26.29 2°48.386 1.7 241 5.7 101920 88
2002-01-18 06:43:32 51°26.292 2°48.387 1.4 232 5.7 101920 88
2002-01-18 06:43:37 51°26.294 2°48.389 1.2 218 5.7 101920 88
2002-01-18 06:43:42 51°26.296 2°48.39 2.2 226 5.7 101920 88
2002-01-18 06:43:47 51°26.298 2°48.391 1.4 232 5.7 101920 88
2002-01-18 06:43:53 51°26.3 2°48.392 1.4 242 5.7 101920 88
2002-01-18 06:43:57 51°26.302 2°48.393 1.6 246 5.7 101920 88
2002-01-18 06:44:01 51°26.303 2°48.394 1.3 241 5.7 101920 88
2002-01-18 06:44:07 51°26.306 2°48.395 2 207 5.7 101920 88
2002-01-18 06:44:12 51°26.308 2°48.396 0.8 224 5.7 101920 88
2002-01-18 06:44:18 51°26.31 2°48.398 1.2 225 5.7 101920 88
2002-01-18 06:44:23 51°26.312 2°48.399 1.8 221 5.7 101920 88
2002-01-18 06:44:27 51°26.313 2°48.4 1 235 5.7 101920 88
2002-01-18 06:44:33 51°26.315 2°48.401 1.8 225 5.7 101920 88
2002-01-18 06:44:37 51°26.317 2°48.402 1.4 234 5.7 101920 88
2002-01-18 06:44:43 51°26.319 2°48.404 1.7 223 5.7 101920 88
2002-01-18 06:44:47 51°26.321 2°48.404 1.2 224 5.7 101920 88
2002-01-18 06:44:52 51°26.322 2°48.405 1.1 233 5.7 101920 88
2002-01-18 06:44:57 51°26.324 2°48.406 1 227 5.7 101930 88
2002-01-18 06:45:02 51°26.326 2°48.407 1.1 230 5.7 101930 88
2002-01-18 06:45:07 51°26.328 2°48.409 0.9 214 5.7 101920 88
2002-01-18 06:45:13 51°26.331 2°48.41 2.6 216 5.7 101920 88
2002-01-18 06:45:17 51°26.332 2°48.411 1.8 221 5.7 101920 88
2002-01-18 06:45:21 51°26.333 2°48.411 1.6 215 5.7 101920 88
2002-01-18 06:45:27 51°26.335 2°48.412 1.3 231 5.7 101920 88
2002-01-18 06:45:33 51°26.337 2°48.413 1.5 222 5.7 101920 88
2002-01-18 06:45:37 51°26.339 2°48.414 1.3 208 5.7 101920 88
2002-01-18 06:45:41 51°26.34 2°48.415 1.5 227 5.7 101920 88
2002-01-18 06:45:47 51°26.342 2°48.416 1.7 233 5.7 101920 88
2002-01-18 06:45:51 51°26.344 2°48.417 1 246 5.7 101920 88
2002-01-18 06:45:57 51°26.346 2°48.418 2.2 227 5.7 101920 88
2002-01-18 06:46:01 51°26.347 2°48.418 1.5 245 5.7 101920 88
2002-01-18 06:46:07 51°26.35 2°48.42 1.3 230 5.7 101930 88
2002-01-18 06:46:11 51°26.351 2°48.42 1.7 224 5.7 101930 88
2002-01-18 06:46:17 51°26.353 2°48.422 1.2 234 5.7 101920 88
2002-01-18 06:46:21 51°26.354 2°48.422 1.9 224 5.7 101920 88
2002-01-18 06:46:27 51°26.356 2°48.423 1.8 235 5.7 101920 89
2002-01-18 06:46:33 51°26.358 2°48.425 1.4 218 5.7 101920 89
2002-01-18 06:46:37 51°26.359 2°48.425 1.2 234 5.7 101920 89
2002-01-18 06:46:43 51°26.361 2°48.427 1.3 222 5.7 101920 89
2002-01-18 06:46:47 51°26.363 2°48.427 0.9 236 5.7 101920 89
2002-01-18 06:46:51 51°26.364 2°48.428 0.9 248 5.7 101920 89
2002-01-18 06:46:57 51°26.366 2°48.429 1.3 223 5.7 101920 89
2002-01-18 06:47:01 51°26.368 2°48.43 1.4 226 5.7 101920 89
2002-01-18 06:47:05 51°26.369 2°48.431 1.5 235 5.7 101920 89
2002-01-18 06:47:13 51°26.372 2°48.433 1.5 223 5.7 101920 89
2002-01-18 06:47:17 51°26.373 2°48.433 1.2 223 5.7 101920 89
2002-01-18 06:47:21 51°26.374 2°48.434 0.8 237 5.7 101920 89
2002-01-18 06:47:27 51°26.376 2°48.435 1.2 236 5.7 101920 89
2002-01-18 06:47:31 51°26.378 2°48.436 1.1 259 5.7 101920 89
2002-01-18 06:47:37 51°26.38 2°48.437 1.7 234 5.7 101920 89
2002-01-18 06:47:41 51°26.381 2°48.438 1.1 233 5.7 101920 89
2002-01-18 06:47:47 51°26.383 2°48.439 1.4 240 5.7 101920 89
2002-01-18 06:47:52 51°26.385 2°48.44 1.6 225 5.7 101920 89
2002-01-18 06:47:57 51°26.386 2°48.441 1.2 231 5.7 101930 89
2002-01-18 06:48:01 51°26.388 2°48.442 1.1 226 5.7 101930 89
2002-01-18 06:48:07 51°26.39 2°48.443 1.4 234 5.7 101930 89
2002-01-18 06:48:11 51°26.391 2°48.444 1.4 236 5.7 101930 89
2002-01-18 06:48:17 51°26.393 2°48.445 1.7 247 5.7 101920 89
2002-01-18 06:48:21 51°26.394 2°48.446 0.8 227 5.7 101920 89
2002-01-18 06:48:27 51°26.396 2°48.447 1.9 221 5.7 101930 89
2002-01-18 06:48:32 51°26.398 2°48.449 1.9 211 5.7 101930 89
2002-01-18 06:48:37 51°26.4 2°48.449 1.4 219 5.7 101930 89
2002-01-18 06:48:43 51°26.402 2°48.451 1.4 133 5.7 101930 89
2002-01-18 06:48:47 51°26.403 2°48.452 0.8 252 5.7 101920 89
2002-01-18 06:48:53 51°26.406 2°48.454 0.7 220 5.7 101920 89
2002-01-18 06:48:57 51°26.407 2°48.455 1.3 254 5.7 101920 89
2002-01-18 06:49:03 51°26.41 2°48.456 1.2 234 5.7 101920 89
2002-01-18 06:49:07 51°26.412 2°48.458 1 217 5.7 101920 88
2002-01-18 06:49:13 51°26.414 2°48.459 1.1 237 5.7 101920 88
2002-01-18 06:49:17 51°26.416 2°48.461 0.9 245 5.7 101920 88
2002-01-18 06:49:22 51°26.418 2°48.462 1 248 5.7 101920 88
2002-01-18 06:49:27 51°26.421 2°48.464 1.6 258 5.7 101930 88
2002-01-18 06:49:33 51°26.424 2°48.467 2 244 5.7 101930 88
2002-01-18 06:49:37 51°26.425 2°48.468 3.1 257 5.7 101930 88
2002-01-18 06:49:42 51°26.428 2°48.471 2.1 248 5.7 101930 88